Location: Düngen
(52.0952°N, 10.0219°E)
Time: 19:18:23
(UTC+00:00)

Cosmos 2227 Rocket - Pass Details

Date: 11 March 2026
Orbit: 836 x 845 km, 71.0° (Epoch: 20 April)

Event Time Altitude Azimuth Distance (km) Brightness Sun altitude
Rises 21:02:52 0° 330° (NNW) 3,416 6.4 -32.6°
Reaches altitude 10° 21:05:30 10° 338° (NNW) 2,478 5.4 -32.9°
Enters shadow 21:09:18 33° 13° (NNE) 1,401 3.5 -33.3°
